Saint Bonnet de Bellac- Haute Vienne - France
Donnes mto: samedi, 06/10/2012
Date Horaire Temp. E. Hum. E. P.atmo. Pluie Vent Direction Direction Ensoleilleme Solaire P. de rose Temp au vent Rafales
06/10/2012 00:00 14,3 C 84 % 1015,0 hPa 0,0 mm 2,9 km/h (1 Bft) E-SE 112 0 min 0 W/m 11,6 C 14,3 C 6,5 km/h (2 Bft)
06/10/2012 00:10 14,3 C 84 % 1015,2 hPa 0,0 mm 0,0 km/h (0 Bft) E-SE 112 0 min 0 W/m 11,6 C 14,3 C 0,0 km/h (0 Bft)
06/10/2012 00:20 14,2 C 84 % 1015,2 hPa 0,0 mm 2,2 km/h (1 Bft) E 90 0 min 0 W/m 11,5 C 14,2 C 4,3 km/h (1 Bft)
06/10/2012 00:30 14,3 C 84 % 1015,2 hPa 0,0 mm 0,4 km/h (0 Bft) E-SE 112 0 min 0 W/m 11,6 C 14,3 C 3,6 km/h (1 Bft)
06/10/2012 00:40 14,2 C 84 % 1014,9 hPa 0,0 mm 0,0 km/h (0 Bft) E-SE 112 0 min 0 W/m 11,5 C 14,2 C 0,0 km/h (0 Bft)
06/10/2012 00:50 14,1 C 84 % 1015,1 hPa 0,0 mm 0,0 km/h (0 Bft) E-SE 112 0 min 0 W/m 11,4 C 14,1 C 0,0 km/h (0 Bft)
06/10/2012 01:00 13,9 C 83 % 1015,0 hPa 0,0 mm 0,0 km/h (0 Bft) E-SE 112 0 min 0 W/m 11,1 C 13,9 C 0,0 km/h (0 Bft)
06/10/2012 01:10 13,7 C 83 % 1015,0 hPa 0,0 mm 0,0 km/h (0 Bft) E-SE 112 0 min 0 W/m 10,9 C 13,7 C 0,0 km/h (0 Bft)
06/10/2012 01:20 13,5 C 84 % 1014,8 hPa 0,0 mm 0,0 km/h (0 Bft) E-SE 112 0 min 0 W/m 10,8 C 13,5 C 0,0 km/h (0 Bft)
06/10/2012 01:30 13,6 C 85 % 1014,8 hPa 0,0 mm 1,8 km/h (1 Bft) S-SE 157 0 min 0 W/m 11,1 C 13,6 C 4,3 km/h (1 Bft)
06/10/2012 01:40 13,8 C 84 % 1014,9 hPa 0,0 mm 0,0 km/h (0 Bft) S 180 0 min 0 W/m 11,1 C 13,8 C 0,0 km/h (0 Bft)
06/10/2012 01:50 14,0 C 84 % 1014,9 hPa 0,0 mm 0,0 km/h (0 Bft) S-SO 202 0 min 0 W/m 11,3 C 14,0 C 0,0 km/h (0 Bft)
06/10/2012 02:00 14,2 C 84 % 1014,9 hPa 0,0 mm 1,4 km/h (1 Bft) S-SE 157 0 min 0 W/m 11,5 C 14,2 C 4,0 km/h (1 Bft)
06/10/2012 02:10 14,9 C 81 % 1014,9 hPa 0,0 mm 5,8 km/h (2 Bft) S 180 0 min 0 W/m 11,7 C 14,9 C 12,6 km/h (3 Bft)
06/10/2012 02:20 15,7 C 79 % 1014,8 hPa 0,0 mm 6,1 km/h (2 Bft) S-SO 202 0 min 0 W/m 12,1 C 15,7 C 10,8 km/h (2 Bft)
06/10/2012 02:30 16,3 C 77 % 1014,8 hPa 0,0 mm 5,4 km/h (2 Bft) S-SO 202 0 min 0 W/m 12,3 C 16,3 C 8,3 km/h (2 Bft)
06/10/2012 02:40 16,8 C 75 % 1015,0 hPa 0,0 mm 8,3 km/h (2 Bft) S-SO 202 0 min 0 W/m 12,3 C 16,8 C 13,3 km/h (3 Bft)
06/10/2012 02:50 17,2 C 73 % 1015,1 hPa 0,0 mm 4,0 km/h (1 Bft) O-SO 247 0 min 0 W/m 12,3 C 17,2 C 4,0 km/h (1 Bft)
06/10/2012 03:02 17,2 C 73 % 1015,1 hPa 0,0 mm 5,0 km/h (1 Bft) O-SO 247 0 min 0 W/m 12,3 C 17,2 C 10,4 km/h (2 Bft)
06/10/2012 03:10 16,9 C 73 % 1015,0 hPa 0,0 mm 4,7 km/h (1 Bft) O-SO 247 0 min 0 W/m 12,0 C 16,9 C 9,0 km/h (2 Bft)
06/10/2012 03:20 16,8 C 74 % 1015,0 hPa 0,0 mm 5,8 km/h (2 Bft) SO 225 0 min 0 W/m 12,1 C 16,8 C 9,7 km/h (2 Bft)
06/10/2012 03:30 16,6 C 75 % 1015,0 hPa 0,0 mm 5,8 km/h (2 Bft) S-SO 202 0 min 0 W/m 12,1 C 16,6 C 5,8 km/h (2 Bft)
06/10/2012 03:40 16,4 C 77 % 1015,0 hPa 0,0 mm 5,4 km/h (2 Bft) S-SO 202 0 min 0 W/m 12,4 C 16,4 C 5,4 km/h (2 Bft)
06/10/2012 03:50 16,4 C 77 % 1014,9 hPa 0,0 mm 8,6 km/h (2 Bft) S-SO 202 0 min 0 W/m 12,4 C 16,4 C 11,9 km/h (2 Bft)
06/10/2012 04:00 16,4 C 78 % 1015,0 hPa 0,0 mm 2,9 km/h (1 Bft) O-SO 247 0 min 0 W/m 12,6 C 16,4 C 2,9 km/h (1 Bft)
06/10/2012 04:10 16,4 C 78 % 1014,9 hPa 0,0 mm 4,3 km/h (1 Bft) S-SO 202 0 min 0 W/m 12,6 C 16,4 C 8,3 km/h (2 Bft)
06/10/2012 04:20 16,3 C 79 % 1015,0 hPa 0,0 mm 7,9 km/h (2 Bft) SO 225 0 min 0 W/m 12,6 C 16,3 C 12,6 km/h (3 Bft)
06/10/2012 04:30 16,3 C 79 % 1015,0 hPa 0,0 mm 5,0 km/h (1 Bft) SO 225 0 min 0 W/m 12,6 C 16,3 C 7,9 km/h (2 Bft)
06/10/2012 04:40 16,2 C 79 % 1015,0 hPa 0,0 mm 3,6 km/h (1 Bft) SO 225 0 min 0 W/m 12,6 C 16,2 C 3,6 km/h (1 Bft)
06/10/2012 04:50 16,0 C 80 % 1014,8 hPa 0,0 mm 3,6 km/h (1 Bft) S 180 0 min 0 W/m 12,5 C 16,0 C 7,6 km/h (2 Bft)
06/10/2012 05:00 15,9 C 81 % 1015,0 hPa 0,0 mm 5,4 km/h (2 Bft) S-SO 202 0 min 0 W/m 12,6 C 15,9 C 5,4 km/h (2 Bft)
06/10/2012 05:10 15,9 C 81 % 1015,0 hPa 0,0 mm 11,2 km/h (2 Bft) S 180 0 min 0 W/m 12,6 C 15,9 C 21,6 km/h (4 Bft)
06/10/2012 05:20 16,0 C 81 % 1015,3 hPa 0,0 mm 5,4 km/h (2 Bft) SO 225 0 min 0 W/m 12,7 C 16,0 C 11,2 km/h (2 Bft)
06/10/2012 05:30 15,9 C 82 % 1015,3 hPa 0,0 mm 3,2 km/h (1 Bft) S 180 0 min 0 W/m 12,8 C 15,9 C 7,9 km/h (2 Bft)
06/10/2012 05:40 15,8 C 82 % 1015,3 hPa 0,0 mm 1,4 km/h (1 Bft) S-SO 202 0 min 0 W/m 12,7 C 15,8 C 4,3 km/h (1 Bft)
06/10/2012 05:50 15,8 C 83 % 1015,3 hPa 0,0 mm 5,0 km/h (1 Bft) S-SO 202 0 min 0 W/m 12,9 C 15,8 C 9,4 km/h (2 Bft)
06/10/2012 06:00 15,8 C 84 % 1015,2 hPa 0,0 mm 4,0 km/h (1 Bft) SO 225 0 min 0 W/m 13,1 C 15,8 C 6,8 km/h (2 Bft)
06/10/2012 06:10 15,8 C 84 % 1015,3 hPa 0,0 mm 5,0 km/h (1 Bft) S-SO 202 0 min 0 W/m 13,1 C 15,8 C 9,4 km/h (2 Bft)
06/10/2012 06:20 15,9 C 84 % 1015,3 hPa 0,0 mm 4,0 km/h (1 Bft) S 180 0 min 0 W/m 13,2 C 15,9 C 8,6 km/h (2 Bft)
06/10/2012 06:30 15,8 C 84 % 1015,3 hPa 0,0 mm 6,5 km/h (2 Bft) S-SO 202 0 min 0 W/m 13,1 C 15,8 C 9,7 km/h (2 Bft)
06/10/2012 06:40 15,8 C 84 % 1015,3 hPa 0,0 mm 0,7 km/h (0 Bft) S-SO 202 0 min 0 W/m 13,1 C 15,8 C 0,7 km/h (0 Bft)
06/10/2012 06:50 15,5 C 84 % 1015,2 hPa 0,0 mm 0,0 km/h (0 Bft) S-SE 157 0 min 0 W/m 12,8 C 15,5 C 0,0 km/h (0 Bft)
06/10/2012 07:00 15,1 C 84 % 1015,3 hPa 0,0 mm 0,7 km/h (0 Bft) S-SE 157 0 min 0 W/m 12,4 C 15,1 C 0,7 km/h (0 Bft)
06/10/2012 07:10 14,9 C 85 % 1015,2 hPa 0,0 mm 3,6 km/h (1 Bft) S 180 0 min 0 W/m 12,4 C 14,9 C 7,6 km/h (2 Bft)
06/10/2012 07:20 14,9 C 86 % 1015,3 hPa 0,0 mm 0,7 km/h (0 Bft) S 180 0 min 0 W/m 12,6 C 14,9 C 6,1 km/h (2 Bft)
06/10/2012 07:30 14,9 C 86 % 1015,3 hPa 0,0 mm 0,0 km/h (0 Bft) S-SE 157 0 min 0 W/m 12,6 C 14,9 C 0,0 km/h (0 Bft)
06/10/2012 07:40 14,8 C 86 % 1015,3 hPa 0,0 mm 0,0 km/h (0 Bft) N 360 0 min 0 W/m 12,5 C 14,8 C 0,0 km/h (0 Bft)
06/10/2012 07:50 14,6 C 86 % 1015,3 hPa 0,0 mm 0,4 km/h (0 Bft) S-SE 157 0 min 0 W/m 12,3 C 14,6 C 3,6 km/h (1 Bft)
06/10/2012 08:00 14,5 C 86 % 1015,3 hPa 0,0 mm 1,4 km/h (1 Bft) SE 135 0 min 0 W/m 12,2 C 14,5 C 3,6 km/h (1 Bft)
06/10/2012 08:10 14,5 C 87 % 1015,2 hPa 0,0 mm 2,5 km/h (1 Bft) SE 135 0 min 0 W/m 12,4 C 14,5 C 2,9 km/h (1 Bft)
06/10/2012 08:20 14,5 C 87 % 1015,2 hPa 0,0 mm 0,0 km/h (0 Bft) S-SE 157 0 min 0 W/m 12,4 C 14,5 C 0,0 km/h (0 Bft)
06/10/2012 08:30 14,6 C 87 % 1015,2 hPa 0,0 mm 3,2 km/h (1 Bft) SE 135 0 min 0 W/m 12,5 C 14,6 C 4,3 km/h (1 Bft)
06/10/2012 08:40 14,8 C 87 % 1015,2 hPa 0,0 mm 4,0 km/h (1 Bft) SE 135 0 min 0 W/m 12,7 C 14,8 C 8,3 km/h (2 Bft)
06/10/2012 08:50 15,0 C 87 % 1015,3 hPa 0,0 mm 2,9 km/h (1 Bft) S 180 0 min 0 W/m 12,9 C 15,0 C 6,5 km/h (2 Bft)
06/10/2012 09:00 15,4 C 87 % 1015,4 hPa 0,0 mm 4,7 km/h (1 Bft) S-SE 157 0 min 0 W/m 13,2 C 15,4 C 4,7 km/h (1 Bft)
06/10/2012 09:10 16,1 C 85 % 1015,4 hPa 0,0 mm 4,3 km/h (1 Bft) S-SO 202 0 min 0 W/m 13,6 C 16,1 C 4,3 km/h (1 Bft)
06/10/2012 09:20 16,9 C 84 % 1015,7 hPa 0,0 mm 4,3 km/h (1 Bft) SO 225 0 min 0 W/m 14,2 C 16,9 C 4,3 km/h (1 Bft)
06/10/2012 09:30 17,3 C 82 % 1015,8 hPa 0,0 mm 2,9 km/h (1 Bft) S-SE 157 0 min 0 W/m 14,2 C 17,3 C 2,9 km/h (1 Bft)
06/10/2012 09:40 17,8 C 81 % 1015,8 hPa 0,0 mm 6,8 km/h (2 Bft) S-SO 202 0 min 0 W/m 14,5 C 17,8 C 15,5 km/h (3 Bft)
06/10/2012 09:50 18,4 C 79 % 1015,8 hPa 0,0 mm 4,0 km/h (1 Bft) S-SE 157 0 min 0 W/m 14,7 C 18,4 C 4,3 km/h (1 Bft)
06/10/2012 10:00 18,9 C 77 % 1015,9 hPa 0,0 mm 2,5 km/h (1 Bft) S-SO 202 0 min 0 W/m 14,8 C 18,9 C 6,5 km/h (2 Bft)
06/10/2012 10:10 19,3 C 76 % 1016,1 hPa 0,0 mm 6,1 km/h (2 Bft) S-SE 157 0 min 0 W/m 15,0 C 19,3 C 10,4 km/h (2 Bft)
06/10/2012 10:20 19,5 C 74 % 1016,1 hPa 0,0 mm 5,8 km/h (2 Bft) S-SO 202 0 min 0 W/m 14,7 C 19,5 C 11,2 km/h (2 Bft)
06/10/2012 10:30 19,8 C 74 % 1016,1 hPa 0,0 mm 10,4 km/h (2 Bft) S-SE 157 0 min 0 W/m 15,0 C 19,8 C 12,6 km/h (3 Bft)
06/10/2012 10:40 20,2 C 73 % 1016,1 hPa 0,0 mm 6,8 km/h (2 Bft) SO 225 0 min 0 W/m 15,2 C 20,2 C 11,9 km/h (2 Bft)
06/10/2012 10:50 20,4 C 72 % 1016,2 hPa 0,0 mm 4,0 km/h (1 Bft) SO 225 0 min 0 W/m 15,2 C 20,4 C 9,4 km/h (2 Bft)
06/10/2012 11:00 20,3 C 72 % 1016,0 hPa 0,0 mm 4,7 km/h (1 Bft) SE 135 0 min 0 W/m 15,1 C 20,3 C 4,7 km/h (1 Bft)
06/10/2012 11:10 20,3 C 72 % 1016,1 hPa 0,0 mm 5,0 km/h (1 Bft) S 180 0 min 0 W/m 15,1 C 20,3 C 8,3 km/h (2 Bft)
06/10/2012 11:20 20,3 C 72 % 1016,2 hPa 0,0 mm 4,0 km/h (1 Bft) S-SO 202 0 min 0 W/m 15,1 C 20,3 C 4,0 km/h (1 Bft)
06/10/2012 11:30 20,2 C 73 % 1016,2 hPa 0,0 mm 6,1 km/h (2 Bft) S 180 0 min 0 W/m 15,2 C 20,2 C 10,8 km/h (2 Bft)
06/10/2012 11:40 20,1 C 73 % 1016,3 hPa 0,0 mm 5,0 km/h (1 Bft) S-SO 202 0 min 0 W/m 15,1 C 20,1 C 6,8 km/h (2 Bft)
06/10/2012 11:50 20,1 C 74 % 1016,2 hPa 0,0 mm 6,1 km/h (2 Bft) S-SE 157 0 min 0 W/m 15,3 C 20,1 C 10,1 km/h (2 Bft)
06/10/2012 12:00 20,4 C 73 % 1016,4 hPa 0,0 mm 5,4 km/h (2 Bft) S-SE 157 0 min 0 W/m 15,4 C 20,4 C 6,8 km/h (2 Bft)
06/10/2012 12:10 20,6 C 73 % 1016,5 hPa 0,0 mm 2,2 km/h (1 Bft) S-SO 202 0 min 0 W/m 15,6 C 20,6 C 6,1 km/h (2 Bft)
06/10/2012 12:20 20,6 C 73 % 1016,5 hPa 0,0 mm 4,7 km/h (1 Bft) S 180 0 min 0 W/m 15,6 C 20,6 C 10,4 km/h (2 Bft)
06/10/2012 12:30 21,3 C 72 % 1016,5 hPa 0,0 mm 4,0 km/h (1 Bft) S-SO 202 0 min 0 W/m 16,0 C 21,3 C 4,0 km/h (1 Bft)
06/10/2012 12:40 21,8 C 70 % 1016,6 hPa 0,0 mm 7,2 km/h (2 Bft) S 180 0 min 0 W/m 16,1 C 21,8 C 14,8 km/h (3 Bft)
06/10/2012 12:50 22,0 C 68 % 1016,7 hPa 0,0 mm 8,6 km/h (2 Bft) S-SO 202 0 min 0 W/m 15,8 C 22,0 C 8,6 km/h (2 Bft)
06/10/2012 13:00 22,1 C 68 % 1016,5 hPa 0,0 mm 7,6 km/h (2 Bft) SO 225 0 min 0 W/m 15,9 C 22,1 C 9,7 km/h (2 Bft)
06/10/2012 13:10 22,1 C 67 % 1016,5 hPa 0,0 mm 9,7 km/h (2 Bft) S-SO 202 0 min 0 W/m 15,7 C 22,1 C 9,7 km/h (2 Bft)
06/10/2012 13:20 22,1 C 68 % 1016,6 hPa 0,0 mm 4,7 km/h (1 Bft) O-SO 247 0 min 0 W/m 15,9 C 22,1 C 8,3 km/h (2 Bft)
06/10/2012 13:30 21,9 C 67 % 1016,7 hPa 0,0 mm 6,1 km/h (2 Bft) SO 225 0 min 0 W/m 15,5 C 21,9 C 13,7 km/h (3 Bft)
06/10/2012 13:40 21,8 C 67 % 1016,5 hPa 0,0 mm 5,4 km/h (2 Bft) S-SO 202 0 min 0 W/m 15,4 C 21,8 C 9,7 km/h (2 Bft)
06/10/2012 13:50 21,4 C 68 % 1016,5 hPa 0,0 mm 5,4 km/h (2 Bft) SO 225 0 min 0 W/m 15,2 C 21,4 C 8,6 km/h (2 Bft)
06/10/2012 14:00 21,2 C 69 % 1016,4 hPa 0,0 mm 1,8 km/h (1 Bft) S-SO 202 0 min 0 W/m 15,3 C 21,2 C 1,8 km/h (1 Bft)
06/10/2012 14:10 21,1 C 70 % 1016,3 hPa 0,0 mm 0,0 km/h (0 Bft) SO 225 0 min 0 W/m 15,4 C 21,1 C 3,6 km/h (1 Bft)
06/10/2012 14:20 20,8 C 71 % 1016,1 hPa 0,0 mm 0,0 km/h (0 Bft) S 180 0 min 0 W/m 15,3 C 20,8 C 2,9 km/h (1 Bft)
06/10/2012 14:30 20,8 C 71 % 1016,1 hPa 0,0 mm 1,4 km/h (1 Bft) SO 225 0 min 0 W/m 15,3 C 20,8 C 1,4 km/h (1 Bft)
06/10/2012 14:40 20,5 C 72 % 1016,3 hPa 0,0 mm 0,0 km/h (0 Bft) S-SO 202 0 min 0 W/m 15,3 C 20,5 C 3,6 km/h (1 Bft)
06/10/2012 14:50 20,5 C 72 % 1016,1 hPa 0,0 mm 0,0 km/h (0 Bft) S-SO 202 0 min 0 W/m 15,3 C 20,5 C 0,0 km/h (0 Bft)
06/10/2012 15:00 20,4 C 73 % 1016,1 hPa 0,0 mm 0,0 km/h (0 Bft) SO 225 0 min 0 W/m 15,4 C 20,4 C 0,0 km/h (0 Bft)
06/10/2012 15:10 20,4 C 74 % 1016,0 hPa 0,1 mm 0,0 km/h (0 Bft) SO 225 0 min 0 W/m 15,6 C 20,4 C 0,0 km/h (0 Bft)
06/10/2012 15:20 20,3 C 74 % 1015,8 hPa 0,0 mm 0,0 km/h (0 Bft) SO 225 0 min 0 W/m 15,5 C 20,3 C 0,0 km/h (0 Bft)
06/10/2012 15:30 20,2 C 74 % 1015,8 hPa 0,0 mm 0,0 km/h (0 Bft) SO 225 0 min 0 W/m 15,4 C 20,2 C 0,0 km/h (0 Bft)
06/10/2012 15:40 20,0 C 75 % 1015,7 hPa 0,0 mm 0,0 km/h (0 Bft) SO 225 0 min 0 W/m 15,4 C 20,0 C 0,0 km/h (0 Bft)
06/10/2012 15:50 19,9 C 74 % 1015,7 hPa 0,0 mm 0,0 km/h (0 Bft) SO 225 0 min 0 W/m 15,1 C 19,9 C 0,0 km/h (0 Bft)
06/10/2012 16:00 19,9 C 75 % 1015,7 hPa 0,0 mm 0,0 km/h (0 Bft) SO 225 0 min 0 W/m 15,3 C 19,9 C 0,0 km/h (0 Bft)
06/10/2012 16:10 19,8 C 76 % 1016,1 hPa 0,0 mm 0,0 km/h (0 Bft) O 270 0 min 0 W/m 15,4 C 19,8 C 0,0 km/h (0 Bft)
06/10/2012 16:20 19,9 C 76 % 1015,5 hPa 0,0 mm 0,0 km/h (0 Bft) SO 225 0 min 0 W/m 15,5 C 19,9 C 0,0 km/h (0 Bft)
06/10/2012 16:30 19,9 C 76 % 1015,6 hPa 0,0 mm 0,0 km/h (0 Bft) SO 225 0 min 0 W/m 15,5 C 19,9 C 3,6 km/h (1 Bft)
06/10/2012 16:40 20,0 C 76 % 1015,4 hPa 0,0 mm 0,0 km/h (0 Bft) S-SO 202 0 min 0 W/m 15,6 C 20,0 C 3,2 km/h (1 Bft)
06/10/2012 16:50 20,0 C 76 % 1015,5 hPa 0,0 mm 1,4 km/h (1 Bft) S-SO 202 0 min 0 W/m 15,6 C 20,0 C 4,3 km/h (1 Bft)
06/10/2012 17:00 19,9 C 77 % 1015,6 hPa 0,0 mm 0,0 km/h (0 Bft) O-SO 247 0 min 0 W/m 15,7 C 19,9 C 0,0 km/h (0 Bft)
06/10/2012 17:10 19,9 C 77 % 1015,8 hPa 0,0 mm 2,9 km/h (1 Bft) SO 225 0 min 0 W/m 15,7 C 19,9 C 4,3 km/h (1 Bft)
06/10/2012 17:20 19,8 C 77 % 1015,5 hPa 0,0 mm 0,0 km/h (0 Bft) S-SO 202 0 min 0 W/m 15,6 C 19,8 C 0,0 km/h (0 Bft)
06/10/2012 17:30 19,8 C 77 % 1015,3 hPa 0,0 mm 0,4 km/h (0 Bft) SO 225 0 min 0 W/m 15,6 C 19,8 C 3,2 km/h (1 Bft)
06/10/2012 17:40 19,6 C 78 % 1015,4 hPa 0,0 mm 0,4 km/h (0 Bft) SO 225 0 min 0 W/m 15,7 C 19,6 C 3,2 km/h (1 Bft)
06/10/2012 17:50 19,5 C 78 % 1015,2 hPa 0,0 mm 0,0 km/h (0 Bft) SO 225 0 min 0 W/m 15,6 C 19,5 C 0,0 km/h (0 Bft)
06/10/2012 18:00 19,4 C 79 % 1014,9 hPa 0,0 mm 0,0 km/h (0 Bft) SO 225 0 min 0 W/m 15,7 C 19,4 C 0,0 km/h (0 Bft)
06/10/2012 18:10 19,2 C 80 % 1014,9 hPa 0,0 mm 0,7 km/h (0 Bft) S-SO 202 0 min 0 W/m 15,7 C 19,2 C 0,7 km/h (0 Bft)
06/10/2012 18:20 19,1 C 80 % 1014,9 hPa 0,0 mm 0,0 km/h (0 Bft) S-SO 202 0 min 0 W/m 15,6 C 19,1 C 0,0 km/h (0 Bft)
06/10/2012 18:30 18,8 C 81 % 1014,9 hPa 0,0 mm 1,8 km/h (1 Bft) S 180 0 min 0 W/m 15,5 C 18,8 C 5,0 km/h (1 Bft)
06/10/2012 18:40 18,8 C 82 % 1015,1 hPa 0,0 mm 0,0 km/h (0 Bft) SO 225 0 min 0 W/m 15,7 C 18,8 C 0,0 km/h (0 Bft)
06/10/2012 18:50 18,5 C 83 % 1015,1 hPa 0,0 mm 1,1 km/h (1 Bft) SO 225 0 min 0 W/m 15,6 C 18,5 C 3,6 km/h (1 Bft)
06/10/2012 19:00 18,3 C 84 % 1015,4 hPa 0,0 mm 0,4 km/h (0 Bft) S-SO 202 0 min 0 W/m 15,5 C 18,3 C 0,4 km/h (0 Bft)
06/10/2012 19:10 18,2 C 84 % 1015,2 hPa 0,0 mm 0,0 km/h (0 Bft) S-SO 202 0 min 0 W/m 15,4 C 18,2 C 0,0 km/h (0 Bft)
06/10/2012 19:20 17,9 C 85 % 1015,3 hPa 0,0 mm 0,0 km/h (0 Bft) S-SO 202 0 min 0 W/m 15,3 C 17,9 C 0,0 km/h (0 Bft)
06/10/2012 19:30 17,8 C 86 % 1015,4 hPa 0,0 mm 0,4 km/h (0 Bft) SO 225 0 min 0 W/m 15,4 C 17,8 C 3,6 km/h (1 Bft)
06/10/2012 19:40 17,7 C 86 % 1015,7 hPa 0,1 mm 0,4 km/h (0 Bft) O-NO 292 0 min 0 W/m 15,3 C 17,7 C 4,3 km/h (1 Bft)
06/10/2012 19:50 17,6 C 87 % 1015,6 hPa 0,0 mm 0,0 km/h (0 Bft) O-NO 292 0 min 0 W/m 15,4 C 17,6 C 3,2 km/h (1 Bft)
06/10/2012 20:00 17,5 C 88 % 1015,8 hPa 0,0 mm 0,7 km/h (0 Bft) SO 225 0 min 0 W/m 15,5 C 17,5 C 4,0 km/h (1 Bft)
06/10/2012 20:10 17,4 C 88 % 1015,5 hPa 0,0 mm 0,7 km/h (0 Bft) SO 225 0 min 0 W/m 15,4 C 17,4 C 3,2 km/h (1 Bft)
06/10/2012 20:20 17,4 C 89 % 1015,7 hPa 0,1 mm 0,4 km/h (0 Bft) SO 225 0 min 0 W/m 15,6 C 17,4 C 2,9 km/h (1 Bft)
06/10/2012 20:30 17,3 C 89 % 1016,0 hPa 0,1 mm 1,4 km/h (1 Bft) SO 225 0 min 0 W/m 15,5 C 17,3 C 2,9 km/h (1 Bft)
06/10/2012 20:40 17,3 C 90 % 1016,0 hPa 0,2 mm 2,5 km/h (1 Bft) SO 225 0 min 0 W/m 15,6 C 17,3 C 6,5 km/h (2 Bft)
06/10/2012 20:50 17,3 C 90 % 1015,9 hPa 0,3 mm 3,2 km/h (1 Bft) SO 225 0 min 0 W/m 15,6 C 17,3 C 3,2 km/h (1 Bft)
06/10/2012 21:00 17,2 C 90 % 1016,1 hPa 0,2 mm 1,4 km/h (1 Bft) O-SO 247 0 min 0 W/m 15,5 C 17,2 C 3,6 km/h (1 Bft)
06/10/2012 21:10 17,1 C 91 % 1016,2 hPa 0,2 mm 2,2 km/h (1 Bft) SO 225 0 min 0 W/m 15,6 C 17,1 C 6,8 km/h (2 Bft)
06/10/2012 21:20 16,8 C 90 % 1016,2 hPa 0,2 mm 2,2 km/h (1 Bft) SO 225 0 min 0 W/m 15,1 C 16,8 C 3,2 km/h (1 Bft)
_ Min-Heure 01:20 13:40 04:50 - 19:50 - - - - 01:20 01:20 19:20
Minimum _ 13,5 C 67 % 1014,8 hPa - 0,0 km/h (0 Bft) - - - - 10,8 C 13,5 C 0,0 km/h (0 Bft)
_ Max-Heure 13:20 21:10 13:30 20:50 05:10 - - 21:20 21:20 12:40 13:20 05:10
Maximum _ 22,1 C 91 % 1016,7 hPa 0,3 mm 11,2 km/h
S (2 Bft)
- - 0 min 0 W/m 16,1 C 22,1 C 21,6 km/h
S (4 Bft)
Moyenne _ 17,8 C 79 % 1015,6 hPa #1,6 mm 2,8 km/h (1 Bft) SO - #0 min. 0 W/m 14,1 C 17,8 C 5,0 km/h (1 Bft)
Saint Bonnet de Bellac- Haute Vienne - France